Weather History for KHIB - December, 2011

Change the Weather History Date:

Monday, December 19, 2011

  Actual Average Record
Temperature  
Mean Temperature 26 °F -  
Max Temperature 32 °F 19 °F 41 °F (2006)
Min Temperature 19 °F 0 °F -38 °F (1983)
Degree Days  
Heating Degree Days 40    
Moisture  
Dew Point 18 °F    
Average Humidity 83    
Maximum Humidity 93    
Minimum Humidity 74    
Precipitation  
Precipitation 0.00 in - - ()
Sea Level Pressure  
Sea Level Pressure 30.14 in    
Wind  
Wind Speed 13 mph (NW)    
Max Wind Speed 18 mph    
Max Gust Speed 29 mph    
Visibility 6 miles    
Events Fog , Snow    
Averages and records for this station are not official NWS values.
T = Trace of Precipitation, MM = Missing Value Source: NWS Daily Summary

Daily Weather History Graph

Daily Weather History Graph

Search for Another Location

Airport or City:

Trip Planner

Search our weather history database for the weather conditions in past years. The results will help you decide how hot, cold, wet, or windy it might be!

Date:

Astronomy

Dec. 19, 2011 Rise Set
Actual Time 7:54 AM CST 4:22 PM CST
Civil Twilight 7:18 AM CST 4:58 PM CST
Nautical Twilight 6:39 AM CST 5:37 PM CST
Astronomical Twilight 6:02 AM CST 6:14 PM CST
Moon 1:49 AM CST (12/19) 12:34 PM CST (12/19)
Length of Visible Light 9h 39m
Length of Day
8h 27m
Waning Crescent, 31% of the Moon is Illuminated
Dec 19
Waning Crescent
Dec 24
New
Jan 1
First Quarter
Jan 9
Full
Jan 16
Last Quarter

Hourly Weather History & Observations

Time (CST) Temp. Windchill Dew Point Humidity Pressure Visibility Wind Dir Wind Speed Gust Speed Precip Events Conditions
12:53 AM 32.0 °F 21.2 °F 28.0 °F 85% 29.79 in 10.0 mi NW 16.1 mph - N/A   Overcast
1:53 AM 30.0 °F 18.7 °F 25.0 °F 82% 29.83 in 10.0 mi NW 16.1 mph 28.8 mph N/A   Overcast
2:53 AM 28.0 °F 15.3 °F 21.9 °F 78% 29.88 in 10.0 mi NW 18.4 mph 26.5 mph N/A   Overcast
3:05 AM 28.4 °F 17.5 °F 21.2 °F 74% 29.84 in 10.0 mi WNW 13.8 mph - N/A   Overcast
3:53 AM 27.0 °F 14.7 °F 21.0 °F 78% 29.92 in 10.0 mi NNW 16.1 mph 23.0 mph N/A   Overcast
4:29 AM 26.6 °F 14.7 °F 21.2 °F 80% 29.89 in 10.0 mi NNW 15.0 mph - N/A   Overcast
4:53 AM 26.1 °F 12.7 °F 19.9 °F 78% 29.96 in 10.0 mi NW 18.4 mph 24.2 mph 0.00 in   Overcast
5:53 AM 25.0 °F 13.6 °F 19.9 °F 81% 30.00 in 8.0 mi NNW 12.7 mph - 0.00 in Snow Light Snow
6:42 AM 23.0 °F 11.1 °F 17.6 °F 80% 29.96 in 10.0 mi WNW 12.7 mph - 0.00 in   Overcast
6:53 AM 24.1 °F 12.5 °F 18.0 °F 77% 30.04 in 10.0 mi WNW 12.7 mph 23.0 mph 0.00 in   Overcast
7:53 AM 24.1 °F 10.1 °F 18.0 °F 77% 30.08 in 10.0 mi NW 18.4 mph - N/A   Overcast
8:53 AM 23.0 °F 9.2 °F 17.1 °F 78% 30.12 in 10.0 mi NW 17.3 mph 23.0 mph N/A   Overcast
9:46 AM 21.2 °F 7.8 °F 17.6 °F 86% 30.09 in 1.8 mi WNW 15.0 mph 20.7 mph 0.00 in Snow Light Snow
9:53 AM 21.9 °F 8.7 °F 18.0 °F 85% 30.16 in 1.8 mi WNW 15.0 mph - 0.00 in Snow Light Snow
10:03 AM 21.2 °F 7.3 °F 17.6 °F 86% 30.10 in 2.0 mi NW 16.1 mph - 0.00 in Snow Light Snow
10:12 AM 21.2 °F 7.3 °F 17.6 °F 86% 30.11 in 7.0 mi NW 16.1 mph - 0.00 in   Overcast
10:45 AM 21.2 °F 8.3 °F 17.6 °F 86% 30.13 in 2.5 mi NW 13.8 mph - 0.00 in Snow Light Snow
10:53 AM 21.0 °F 7.1 °F 17.1 °F 85% 30.19 in 6.0 mi NW 16.1 mph - 0.00 in   Overcast
11:06 AM 21.2 °F 7.3 °F 17.6 °F 86% 30.13 in 8.0 mi NW 16.1 mph - 0.00 in   Overcast
11:53 AM 21.9 °F 10.4 °F 17.1 °F 82% 30.21 in 6.0 mi WNW 11.5 mph - 0.00 in   Haze
1:14 PM 21.2 °F 8.9 °F 15.8 °F 80% 30.16 in 1.8 mi NW 12.7 mph - 0.00 in Snow Light Snow
1:23 PM 21.2 °F 8.9 °F 15.8 °F 80% 30.16 in 3.0 mi NW 12.7 mph 19.6 mph 0.00 in Snow Light Snow
1:40 PM 21.2 °F 7.3 °F 15.8 °F 80% 30.16 in 2.0 mi NW 16.1 mph - 0.00 in Snow Light Snow
1:48 PM 21.2 °F 8.3 °F 15.8 °F 80% 30.16 in 8.0 mi NNW 13.8 mph - N/A   Overcast
1:53 PM 21.9 °F 9.2 °F 15.1 °F 75% 30.23 in 4.0 mi NW 13.8 mph - 0.00 in Snow Light Snow
2:14 PM 21.2 °F 10.1 °F 15.8 °F 80% 30.16 in 1.8 mi NW 10.4 mph - 0.00 in Snow Light Snow
2:30 PM 21.2 °F 10.9 °F 17.6 °F 86% 30.17 in 0.5 mi NW 9.2 mph - 0.00 in Fog , Snow Snow
2:43 PM 21.2 °F 10.1 °F 17.6 °F 86% 30.17 in 0.5 mi WNW 10.4 mph - 0.00 in Fog , Snow Light Snow
2:53 PM 21.0 °F 9.9 °F 17.1 °F 85% 30.25 in 0.5 mi WNW 10.4 mph - 0.00 in Fog , Snow Snow
3:11 PM 21.2 °F 10.9 °F 15.8 °F 80% 30.19 in 1.5 mi NW 9.2 mph - 0.00 in Snow Light Snow
3:22 PM 21.2 °F 11.7 °F 17.6 °F 86% 30.19 in 1.5 mi WNW 8.1 mph - 0.00 in Snow Light Snow
3:44 PM 19.4 °F 9.5 °F 17.6 °F 93% 30.20 in 0.5 mi NW 8.1 mph - 0.00 in Fog , Snow Snow
3:53 PM 19.9 °F 11.1 °F 17.1 °F 89% 30.27 in 0.8 mi NW 6.9 mph - 0.00 in Snow Light Snow
3:57 PM 19.4 °F 9.5 °F 17.6 °F 93% 30.20 in 1.0 mi NW 8.1 mph - 0.00 in Snow Light Snow
4:07 PM 19.4 °F 11.5 °F 17.6 °F 93% 30.20 in 1.0 mi NW 5.8 mph - 0.00 in Snow Light Snow
4:14 PM 19.4 °F 9.5 °F 15.8 °F 86% 30.21 in 1.0 mi NNW 8.1 mph - 0.00 in Snow Light Snow
4:31 PM 19.4 °F 10.4 °F 17.6 °F 93% 30.20 in 0.8 mi NW 6.9 mph - 0.00 in Snow Light Snow
4:39 PM 19.4 °F 12.8 °F 17.6 °F 93% 30.20 in 1.2 mi NW 4.6 mph - 0.00 in Snow Light Snow
4:53 PM 19.9 °F 13.4 °F 17.1 °F 89% 30.29 in 1.5 mi WNW 4.6 mph - 0.00 in Snow Light Snow
5:02 PM 19.4 °F 12.8 °F 17.6 °F 93% 30.21 in 3.0 mi NW 4.6 mph - 0.00 in Snow Light Snow
5:53 PM 19.0 °F - 16.0 °F 88% 30.28 in 8.0 mi Calm Calm - 0.00 in   Overcast
6:53 PM 19.0 °F 12.3 °F 15.1 °F 85% 30.31 in 10.0 mi WNW 4.6 mph - 0.00 in   Overcast
7:42 PM 19.4 °F 9.5 °F 14.0 °F 80% 30.22 in 10.0 mi NW 8.1 mph - N/A   Overcast
7:53 PM 19.0 °F 11.1 °F 14.0 °F 81% 30.31 in 10.0 mi NW 5.8 mph - N/A   Overcast
8:53 PM 19.0 °F 13.9 °F 12.9 °F 77% 30.28 in 10.0 mi West 3.5 mph - N/A   Overcast
9:53 PM 19.4 °F 12.8 °F 14.0 °F 80% 30.19 in 10.0 mi SW 4.6 mph - N/A   Overcast
10:53 PM 19.0 °F 12.3 °F 15.1 °F 85% 30.27 in 10.0 mi South 4.6 mph - N/A   Overcast
11:53 PM 19.9 °F 12.1 °F 15.1 °F 81% 30.28 in 10.0 mi SW 5.8 mph - N/A   Overcast